Regional Weather Roundup
Issued by NWS Green Bay, WI

Home | Current Version | Previous Version | Text Only | Print | Product List | Glossary On
Versions: 1 2 3 4 5 6 7 8 9 10 11 12 13 14 15 16 17 18 19 20 21 22 23 24 25 26 27 28 29 30 31 32 33 34 35 36 37 38 39 40 41 42 43 44 45 46 47 48 49 50
742
ASUS43 KGRB 231611
RWRGRB

NORTH-CENTRAL AND NORTHEAST WISCONSIN REGIONAL WEATHER ROUNDUP
NATIONAL WEATHER SERVICE GREEN BAY WI
1100 AM CDT MON APR 23 2018

WIZ005-009-010>012-018-019-231700-
NORTH CENTRAL WISCONSIN

CITY           SKY/WX    TMP DP  RH WIND       PRES   REMARKS
IRONWOOD       FAIR      55  32  41 W8        30.23F
MANITOWISH WTR FAIR      50  27  40 S8        30.24F
ARBOR VITAE    FAIR      56  27  33 S3        30.24F
EAGLE RIVER    FAIR      51  21  31 SW7       30.25S
LAND O LAKES   FAIR      55  23  29 CALM      30.26S
RHINELANDER    FAIR      55  24  30 SW5       30.25F
PHILLIPS       FAIR      55  27  34 SW6       30.24F
ANTIGO         FAIR      54  25  33 CALM      30.27S
TOMAHAWK       FAIR      54  22  29 CALM      30.26F
MERRILL          N/A     56  28  33 CALM      30.27F
$$

WIZ013-073-231700-
NORTHEAST WISCONSIN

CITY           SKY/WX    TMP DP  RH WIND       PRES   REMARKS
IRON MOUNTAIN  FAIR      59  19  21 NW5       30.24F
MARINETTE      FAIR      56  31  38 SE8       30.28F
OCONTO         FAIR      56  28  33 W6        30.27F
$$

WIZ017-030-035>037-045-231700-
CENTRAL WISCONSIN

CITY           SKY/WX    TMP DP  RH WIND       PRES   REMARKS
MEDFORD        FAIR      52  31  44 S5        30.25F
WAUSAU         FAIR      56  22  26 SW3       30.24F
MOSINEE        MOSUNNY   55  21  26 VRB3      30.27F
MARSHFIELD     FAIR      55  26  32 SE5       30.25F
WISC RAPIDS    FAIR      59  23  25 N3        30.26F
STEVENS POINT  FAIR      54  24  30 SE5       30.27F
WAUPACA        FAIR      55  24  30 CALM      30.27F
SHAWANO        FAIR      51  26  37 CALM      30.27F
CLINTONVILLE   FAIR      52  22  31 CALM      30.28S
WAUTOMA        FAIR      57  22  25 VRB5      30.26F
$$

WIZ038-039-048-051-231700-
FOX VALLEY

CITY           SKY/WX    TMP DP  RH WIND       PRES   REMARKS
NWS GREEN BAY  FAIR      56  32  40 CALM      30.27F
APPLETON       MOSUNNY   55  19  24 CALM      30.25F
OSHKOSH        FAIR      55  30  38 CALM      30.26F
FOND DU LAC    FAIR      53  30  41 N3        30.25F
$$

WIZ022-050-052-231700-
EAST CENTRAL WISCONSIN

CITY           SKY/WX    TMP DP  RH WIND       PRES   REMARKS
EPHRAIM        FAIR      56  27  33 SW3       30.27F
WASHINGTON ISL FAIR      52  28  38 SW5       30.28S
STURGEON BAY   FAIR      55  32  41 VRB3      30.28F
MANITOWOC      FAIR      55  33  43 VRB3      30.27F
SHEBOYGAN      FAIR      57  30  35 E8        30.25F
$$

LMZ563-521-522-541>543-231700-
LAKESHORE

STATION/POSITION TIME  TEMP    WIND        PRES    VSBY  WAVE
                       AIR SEA DIR/SP/G                  HT/PER
                 (UTC) (F)     (DEG/KT/KT) (MB)    (MI)  (FT/S)
SHEBOYGAN LKSHOR 1600   41     360/ 12/ 12 1024.9F
KEWAUNEE LKSHORE 1542   45      40/  3/  4 1024.4F
NORTHPORT PIER   1540   44                 1025.4F
SISTER BAY LKSHO 1557   49      70/  3/  3   N/A
MENOMINEE LKSHOR 1536   39      80/  4/  5 1025.0F
$$




USA.gov is the U.S. government's official web portal to all federal, state and local government web resources and services.